This is the latest recevied weather packets stored in our database for station/object VK5GR-12. If no packets are shown the sender has not sent any weather packets the latest 10 day(s).
| Time | Temp. | Humidity | Pressure | Rain* | Wind** | Luminosity | Snow |
|---|---|---|---|---|---|---|---|
| 1777908656 | 11.67° C | 97% | 1020.6 hPa | 0 mm | - | 0 W/m² | - |
| 1777905044 | 11.67° C | 97% | 1020.4 hPa | 0 mm | - | 0 W/m² | - |
| 1777901431 | 11.67° C | 96% | 1020.2 hPa | 0 mm | - | 0 W/m² | - |
| 1777900529 | 12.22° C | 96% | 1020.2 hPa | 0 mm | - | 0 W/m² | - |
| 1777897820 | 12.22° C | 95% | 1020 hPa | 0 mm | - | 0 W/m² | - |
| 1777896919 | 12.78° C | 94% | 1019.9 hPa | 0 mm | - | 0 W/m² | - |
| 1777896018 | 12.78° C | 94% | 1019.7 hPa | 0 mm | - | 0 W/m² | - |
| 1777895116 | 13.33° C | 93% | 1019.7 hPa | 0 mm | - | 0 W/m² | - |
| 1777894214 | 13.33° C | 93% | 1019.5 hPa | 0 mm | - | 0 W/m² | - |
| 1777893308 | 13.89° C | 92% | 1019.5 hPa | 0 mm | - | 0 W/m² | - |
| 1777892404 | 13.89° C | 91% | 1019.5 hPa | 0 mm | - | 0 W/m² | - |
| 1777891500 | 13.89° C | 90% | 1019.3 hPa | 3.05 mm | - | 0 W/m² | - |
| 1777890597 | 13.89° C | 88% | 1018.5 hPa | 0 mm | - | 0 W/m² | - |
| 1777889693 | 13.89° C | 87% | 1018.5 hPa | 0 mm | - | 0 W/m² | - |
| 1777888790 | 14.44° C | 86% | 1018.3 hPa | 0 mm | - | 0 W/m² | - |
| 1777886986 | 15° C | 82% | 1017.9 hPa | 0 mm | - | 0 W/m² | - |
| 1777886083 | 15° C | 77% | 1017.7 hPa | 0 mm | - | 0 W/m² | - |
| 1777885183 | 15° C | 75% | 1017.4 hPa | 0 mm | - | 0 W/m² | - |
| 1777884279 | 15° C | 73% | 1017.4 hPa | 0 mm | - | 0 W/m² | - |
| 1777883379 | 15.56° C | 73% | 1017.1 hPa | 0 mm | - | 0 W/m² | - |
| 1777882476 | 15.56° C | 74% | 1017 hPa | 0 mm | - | 0 W/m² | - |
| 1777881571 | 15.56° C | 73% | 1016.7 hPa | 0 mm | - | 4 W/m² | - |
| 1777880669 | 16.11° C | 71% | 1016.7 hPa | 0 mm | - | 12 W/m² | - |
| 1777879769 | 16.67° C | 70% | 1016.6 hPa | 0 mm | - | 25 W/m² | - |
| 1777878866 | 16.67° C | 70% | 1016.3 hPa | 0 mm | - | 30 W/m² | - |
* Rain latest hour (hover to see other rain measurements)
** Current wind speed in m/s (hover to see current wind gust speed)